[[{"header":{"parameterUnit":"m.s-1","parameterCategory":1,"la1":30.2991,"la2":30.254,"lo1":-89.0895,"lo2":-89.0444,"dy":0.0017,"dx":0.0017,"nx":28,"ny":28,"refTime":"2025-04-25T21:00:00:Z","depth":0,"parameterNumber":2,"parameterNumberName":"U-component_of_WINDS"},"data":[0,0,0,0,0,0,0,0,0,0,0,0,0,0,0,0,0,0,0,0,0,0,0,0,0,0,0,0,0,0,0,0,0,0,0,0,0,0,0,0,0,0,0,0,0,0,0,0,0,0,0,0,0,0,0,0,0,0,-0.0168,-0.0168,0,-0.0142,-0.0142,-0.0141,-0.013,-0.013,-0.013,-0.013,-0.0105,-0.0105,-0.0104,0,0,0,0,0,0,0,0,0,0,0,0,0,-0.0211,-0.0211,-0.0168,-0.0168,-0.0168,-0.0142,-0.0142,-0.0141,-0.013,-0.013,-0.013,-0.013,-0.0106,-0.0105,-0.0104,0,0,0,0,0,0,0,0,0,0,0,0,0,-0.019,-0.021,-0.0168,-0.0159,-0.0158,-0.0142,-0.0142,-0.0141,-0.013,-0.013,-0.013,-0.0131,-0.0106,-0.0105,-0.0104,-0.0096,0,0,-0.01,-0.01,0,0,0,0,0,0,0,0,-0.0191,-0.0188,-0.0161,-0.016,-0.0158,-0.0139,-0.0147,-0.0126,-0.013,-0.0141,-0.013,-0.0131,-0.0117,-0.0115,-0.011,-0.0094,-0.0093,-0.01,-0.01,-0.0099,-0.0099,0,0,0,0,0,0,0,-0.0192,-0.0189,-0.0158,-0.016,-0.0159,-0.0157,-0.0154,-0.0143,-0.0129,-0.014,-0.0139,-0.0136,-0.0116,-0.0111,-0.0109,-0.0093,-0.01,-0.0099,-0.0099,-0.0098,-0.0071,-0.0071,0,0,0,0,0,0,-0.0195,-0.019,-0.0159,-0.0157,-0.0175,-0.0156,-0.0153,-0.0145,-0.0129,-0.0126,-0.0136,-0.0136,-0.0113,-0.011,-0.0108,-0.0098,-0.0099,-0.0098,-0.0098,-0.0071,-0.0071,-0.0071,0,0,0,0,0,0,-0.0196,-0.0192,-0.016,-0.0173,-0.0169,-0.0155,-0.0147,-0.0145,-0.0139,-0.0126,-0.0123,-0.0133,-0.0113,-0.011,-0.0099,-0.0097,-0.0098,-0.0097,-0.0071,-0.0071,-0.0071,-0.0077,0,0,0,0,0,0,-0.0197,-0.0193,-0.0189,-0.0173,-0.0168,-0.015,-0.0147,-0.0144,-0.0137,-0.0137,-0.0122,-0.012,-0.0112,-0.0101,-0.0098,-0.0095,-0.0096,-0.0071,-0.0071,-0.0071,-0.0077,-0.0077,-0.0078,0,0,0,0,0,-0.0199,-0.0192,-0.0189,-0.0185,-0.0163,-0.015,-0.0147,-0.0138,-0.0137,-0.0134,-0.0125,-0.0121,-0.0098,-0.0099,-0.0096,-0.0094,-0.0071,-0.0071,-0.0071,-0.0077,-0.0077,-0.0078,0,0,0,0,0,0,-0.0208,-0.019,-0.0186,-0.0174,-0.0164,-0.0148,-0.0143,-0.0139,-0.0129,-0.0128,-0.0118,-0.0115,-0.0105,-0.0098,-0.0101,-0.0085,-0.0084,-0.0083,-0.009,-0.009,-0.009,-0.0092,-0.0095,0,0,0,0,0,-0.0209,-0.0199,-0.0184,-0.0174,-0.0169,-0.0157,-0.0151,-0.0145,-0.0134,-0.013,-0.0121,-0.0111,-0.0101,-0.0095,-0.0086,-0.0076,-0.0073,-0.0073,-0.0073,-0.0073,-0.0073,-0.0068,-0.0068,-0.007,-0.007,-0.007,0,0,-0.021,-0.0199,-0.0193,-0.0176,-0.0167,-0.0158,-0.0154,-0.0144,-0.0137,-0.0129,-0.0118,-0.0111,-0.0099,-0.0089,-0.0084,-0.0083,-0.0072,-0.0073,-0.0073,-0.0073,-0.0068,-0.0067,-0.0067,-0.007,-0.007,-0.007,0,0,-0.0207,-0.0197,-0.0189,-0.018,-0.0167,-0.0159,-0.0157,-0.0143,-0.0138,-0.0126,-0.012,-0.0112,-0.0096,-0.0088,-0.0082,-0.0078,-0.0073,-0.0075,-0.0076,-0.0071,-0.0071,-0.0071,-0.007,-0.0069,-0.0075,-0.0075,-0.0075,0,-0.021,-0.0195,-0.0185,-0.0176,-0.0169,-0.016,-0.0152,-0.0145,-0.0129,-0.0125,-0.0124,-0.0104,-0.0096,-0.0084,-0.0083,-0.0078,-0.0076,-0.0077,-0.0072,-0.0072,-0.0071,-0.007,-0.007,-0.0075,-0.0075,-0.0075,-0.0075,0,-0.02,-0.019,-0.0185,-0.017,-0.0162,-0.0154,-0.0143,-0.0137,-0.0132,-0.0124,-0.0114,-0.0103,-0.0092,-0.0089,-0.0084,-0.0077,-0.0076,-0.0074,-0.0072,-0.0072,-0.007,-0.007,-0.0075,-0.0075,-0.0075,-0.0075,0,0,-0.0202,-0.0182,-0.018,-0.0173,-0.0159,-0.0151,-0.0143,-0.0131,-0.0126,-0.0116,-0.0109,-0.0096,-0.0094,-0.0087,-0.0081,-0.0077,-0.0075,-0.0075,-0.0075,-0.0075,-0.0067,-0.0069,-0.0068,-0.0072,-0.0072,-0.0071,-0.0068,0,-0.0197,-0.0181,-0.0172,-0.0159,-0.015,-0.0143,-0.0135,-0.0126,-0.0119,-0.0111,-0.0104,-0.0095,-0.0092,-0.0088,-0.0084,-0.0076,-0.0073,-0.0076,-0.0066,-0.0065,-0.0069,-0.0067,-0.0069,-0.0066,-0.0067,-0.0067,-0.0067,0,-0.019,-0.0179,-0.0166,-0.0153,-0.0149,-0.0142,-0.0131,-0.0123,-0.0113,-0.0108,-0.0101,-0.0095,-0.0087,-0.0086,-0.0075,-0.0077,-0.0073,-0.0068,-0.0068,-0.0067,-0.0066,-0.0066,-0.0065,-0.0065,-0.0066,-0.0066,-0.0066,0,-0.0193,-0.0175,-0.0165,-0.016,-0.0144,-0.014,-0.0133,-0.0123,-0.0117,-0.0108,-0.0104,-0.0094,-0.0089,-0.0081,-0.0074,-0.0074,-0.0063,-0.0062,-0.006,-0.006,-0.0058,-0.0058,-0.0056,-0.0055,-0.0055,-0.0055,-0.0055,0,-0.0188,-0.018,-0.0166,-0.016,-0.0151,-0.0142,-0.0134,-0.0127,-0.0118,-0.0111,-0.0104,-0.0097,-0.0087,-0.008,-0.0074,-0.0065,-0.0063,-0.006,-0.0058,-0.006,-0.0061,-0.0057,-0.0057,-0.0055,-0.0055,-0.0055,-0.0055,0,-0.019,-0.018,-0.0169,-0.0155,-0.0151,-0.0145,-0.0134,-0.0128,-0.0121,-0.0112,-0.011,-0.0099,-0.009,-0.0081,-0.0069,-0.0065,-0.0057,-0.0055,-0.0061,-0.006,-0.0058,-0.0059,-0.0054,-0.0053,-0.0052,-0.0052,-0.0052,0,-0.0188,-0.0181,-0.0167,-0.0161,-0.0155,-0.0146,-0.014,-0.0131,-0.0124,-0.0113,-0.0108,-0.0099,-0.0091,-0.0077,-0.0068,-0.006,-0.0057,-0.0056,-0.0056,-0.0058,-0.0057,-0.0058,-0.0058,-0.0056,-0.0056,-0.0056,-0.0057,0,-0.0185,-0.0181,-0.0172,-0.0161,-0.0154,-0.0145,-0.0136,-0.0132,-0.0121,-0.0115,-0.0105,-0.0099,-0.0087,-0.0078,-0.0068,-0.0062,-0.0058,-0.0057,-0.0056,-0.0058,-0.0061,-0.006,-0.0061,-0.0057,-0.0057,-0.0057,-0.0057,-0.0057,-0.0185,-0.0179,-0.0168,-0.0159,-0.0151,-0.0143,-0.0137,-0.0129,-0.0121,-0.011,-0.0105,-0.0096,-0.0086,-0.0073,-0.0067,-0.006,-0.0059,-0.0058,-0.0057,-0.0057,-0.0058,-0.0062,-0.0058,-0.0058,-0.0058,-0.0058,-0.0058,0,-0.0182,-0.0175,-0.0166,-0.0154,-0.0146,-0.0142,-0.0133,-0.0127,-0.0118,-0.011,-0.0102,-0.0092,-0.0083,-0.0074,-0.0065,-0.0061,-0.0059,-0.0059,-0.0059,-0.0058,-0.0059,-0.0061,-0.0061,-0.0061,-0.0061,-0.0061,-0.0061,-0.0061,-0.018,-0.017,-0.0165,-0.0151,-0.0144,-0.0134,-0.0129,-0.0122,-0.0115,-0.0104,-0.0096,-0.009,-0.0082,-0.0072,-0.0065,-0.0062,-0.0059,-0.006,-0.0057,-0.0058,-0.0058,-0.0058,-0.0059,-0.006,-0.006,-0.0057,-0.0057,-0.0057]},{"header":{"parameterUnit":"m.s-1","parameterCategory":1,"la1":30.2991,"la2":30.254,"lo1":-89.0895,"lo2":-89.0444,"dy":0.0017,"dx":0.0017,"nx":28,"ny":28,"refTime":"2025-04-25T21:00:00:Z","depth":0,"parameterNumber":3,"parameterNumberName":"V-component_of_WINDS"},"data":[0,0,0,0,0,0,0,0,0,0,0,0,0,0,0,0,0,0,0,0,0,0,0,0,0,0,0,0,0,0,0,0,0,0,0,0,0,0,0,0,0,0,0,0,0,0,0,0,0,0,0,0,0,0,0,0,0,0,1.6805,1.6805,0,1.685,1.6851,1.6851,1.6822,1.6821,1.6819,1.6818,1.6866,1.6869,1.6871,0,0,0,0,0,0,0,0,0,0,0,0,0,1.6694,1.6696,1.6805,1.6805,1.6806,1.685,1.6851,1.6851,1.6822,1.6821,1.6819,1.6818,1.6865,1.6868,1.6871,0,0,0,0,0,0,0,0,0,0,0,0,0,1.6741,1.6697,1.6805,1.6797,1.6797,1.685,1.6851,1.6852,1.6823,1.6821,1.6819,1.6817,1.6864,1.6868,1.6872,1.6936,0,0,1.6884,1.6885,0,0,0,0,0,0,0,0,1.6738,1.6745,1.6797,1.6797,1.6797,1.6828,1.6829,1.688,1.6823,1.6813,1.6818,1.6816,1.6855,1.686,1.6873,1.6938,1.694,1.6884,1.6886,1.6888,1.6889,0,0,0,0,0,0,0,1.6735,1.6743,1.6823,1.6798,1.6798,1.6791,1.6796,1.6839,1.6845,1.6814,1.6812,1.6817,1.6855,1.6869,1.6874,1.6941,1.6884,1.6887,1.6889,1.6891,1.7061,1.7063,0,0,0,0,0,0,1.6732,1.674,1.6821,1.6824,1.6762,1.6795,1.68,1.6821,1.6845,1.6846,1.6819,1.6816,1.6864,1.6869,1.6875,1.6952,1.6888,1.6891,1.6894,1.7059,1.7061,1.7064,0,0,0,0,0,0,1.673,1.674,1.682,1.6782,1.6791,1.6799,1.6822,1.6823,1.6837,1.6849,1.685,1.6832,1.6862,1.687,1.6921,1.6953,1.6893,1.6897,1.7056,1.706,1.7063,1.7105,0,0,0,0,0,0,1.6727,1.6739,1.6764,1.6782,1.6793,1.6864,1.6824,1.6825,1.6843,1.6839,1.6861,1.6863,1.6861,1.6915,1.6925,1.6957,1.69,1.7053,1.7058,1.7062,1.7101,1.711,1.7117,0,0,0,0,0,1.6723,1.6774,1.6765,1.6775,1.6824,1.6866,1.6873,1.6869,1.6846,1.6871,1.6878,1.6862,1.6948,1.6921,1.6931,1.6965,1.7051,1.7056,1.7061,1.7097,1.7108,1.7117,0,0,0,0,0,0,1.676,1.6777,1.6767,1.6825,1.6845,1.6861,1.6892,1.688,1.6907,1.6902,1.6897,1.6903,1.6956,1.6966,1.6935,1.7028,1.6996,1.7003,1.702,1.703,1.7038,1.7034,1.6903,0,0,0,0,0,1.6775,1.6807,1.682,1.6871,1.6881,1.6885,1.6903,1.6899,1.6919,1.6927,1.6938,1.6958,1.6989,1.701,1.704,1.7102,1.7106,1.7131,1.7139,1.7145,1.7152,1.7185,1.7196,1.708,1.708,1.708,0,0,1.6806,1.6819,1.684,1.6879,1.6893,1.6927,1.6892,1.693,1.6955,1.6933,1.6981,1.699,1.7012,1.7069,1.7095,1.7079,1.7184,1.7151,1.7157,1.716,1.7191,1.7202,1.7212,1.7084,1.7083,1.7083,0,0,1.688,1.6893,1.6937,1.6951,1.6973,1.6975,1.6986,1.7004,1.7009,1.7057,1.7041,1.7071,1.7125,1.7142,1.7157,1.7236,1.7223,1.7246,1.7288,1.732,1.7329,1.7337,1.7365,1.7375,1.7252,1.7252,1.7252,0,1.6916,1.6966,1.696,1.6999,1.7016,1.6997,1.704,1.7055,1.7086,1.7098,1.708,1.7147,1.7161,1.7221,1.724,1.7253,1.7265,1.7243,1.7328,1.7336,1.7344,1.737,1.7381,1.7255,1.7255,1.7254,1.7254,0,1.7009,1.7044,1.7077,1.7106,1.7126,1.7167,1.7168,1.719,1.7183,1.7188,1.7237,1.7252,1.7284,1.7298,1.7293,1.7358,1.7347,1.7329,1.7296,1.7357,1.7382,1.7393,1.7259,1.7258,1.7257,1.7256,0,0,1.7109,1.7133,1.7145,1.7158,1.718,1.7207,1.7247,1.7277,1.7296,1.7317,1.7351,1.7396,1.7379,1.7397,1.7393,1.7421,1.7482,1.7399,1.74,1.7414,1.7554,1.7568,1.758,1.7473,1.7475,1.7477,1.7553,0,1.7184,1.7253,1.7248,1.7313,1.7345,1.7327,1.7361,1.7379,1.7384,1.7411,1.7417,1.7449,1.7424,1.7435,1.7462,1.7469,1.7511,1.7464,1.7505,1.7506,1.75,1.7593,1.7608,1.7679,1.7562,1.7564,1.7565,0,1.7281,1.7305,1.7373,1.7389,1.7402,1.7433,1.746,1.7487,1.7507,1.7508,1.7527,1.7518,1.7558,1.7525,1.758,1.7548,1.7565,1.7571,1.7573,1.7577,1.754,1.76,1.7701,1.7712,1.7581,1.7579,1.7578,0,1.7346,1.7395,1.7442,1.7453,1.7474,1.7496,1.7506,1.7523,1.7541,1.7565,1.7577,1.7605,1.7621,1.7644,1.7643,1.7618,1.7699,1.7665,1.7702,1.7702,1.772,1.7719,1.7826,1.773,1.773,1.773,1.773,0,1.743,1.7473,1.7471,1.75,1.7547,1.7541,1.7588,1.7595,1.761,1.764,1.7626,1.7655,1.7652,1.7681,1.768,1.7726,1.7733,1.7736,1.7735,1.7737,1.7737,1.7748,1.7743,1.7733,1.7732,1.7732,1.7731,0,1.7511,1.7512,1.7562,1.7577,1.7581,1.7615,1.7628,1.7655,1.7658,1.7696,1.7705,1.771,1.7743,1.7744,1.7783,1.7783,1.7839,1.7833,1.7832,1.7831,1.7867,1.7864,1.7985,1.8001,1.7895,1.7896,1.7897,0,1.7565,1.7597,1.7615,1.7634,1.7644,1.7675,1.7693,1.7689,1.7708,1.7732,1.7757,1.7788,1.7813,1.7867,1.7875,1.7904,1.7899,1.7939,1.7903,1.7904,1.7899,1.7897,1.79,1.7946,1.7947,1.7948,1.7949,0,1.7661,1.7659,1.7686,1.7713,1.7735,1.7756,1.7775,1.7791,1.7789,1.7812,1.7845,1.7864,1.7903,1.7935,1.7963,1.7973,1.7961,1.796,1.797,1.7973,1.7971,1.7972,1.7851,1.7958,1.7957,1.7956,1.7956,1.7955,1.773,1.7757,1.7773,1.7803,1.7817,1.7835,1.7862,1.7867,1.7895,1.7925,1.7921,1.7958,1.7976,1.8012,1.8025,1.8054,1.804,1.8055,1.8058,1.8062,1.8066,1.7966,1.8059,1.8059,1.8059,1.8059,1.8058,0,1.7824,1.7834,1.7861,1.7888,1.7912,1.7897,1.7918,1.7939,1.7971,1.7988,1.8013,1.8051,1.8081,1.8091,1.812,1.8142,1.8137,1.815,1.8148,1.8151,1.8077,1.8065,1.8153,1.8153,1.8153,1.8153,1.8153,1.8153,1.7876,1.7921,1.7922,1.7973,1.7982,1.8018,1.8031,1.8048,1.8061,1.8104,1.8129,1.8134,1.8149,1.8179,1.8206,1.8208,1.822,1.8235,1.8235,1.8166,1.8156,1.8147,1.8136,1.8238,1.8238,1.8307,1.8307,1.8308]}]]